Miscellaneous Local Product
Issued by NWS North Platte, NE

Home | Current Version | Previous Version | Text Only | Print | Product List | Glossary On
Versions: 1 2 3 4 5 6 7 8 9 10 11 12 13 14 15 16 17 18 19 20 21 22 23 24 25 26 27 28 29 30 31 32 33 34 35 36 37 38 39 40 41 42 43 44 45 46 47 48 49 50
000
AXUS43 KLBF 281610
MISLBF


WESTERN AND NORTH CENTRAL NEBRASKA HOURLY WEATHER ROUNDUP
NATIONAL WEATHER SERVICE NORTH PLATTE NE
1000 AM CST SAT FEB 28 2015

***STATIONS NOT REPORTING VARIABLES SUCH AS SKY/WEATHER OR
PRESSURE ARE PROVIDED BY THE NEBRASKA DEPARTMENT OF
ROADS...RAWS...AND APRS NETWORKS...AND ARE NOT UNDER
NATIONAL WEATHER SERVICE QUALITY CONTROL***

...OBSERVATIONS IN AND NEAR THE EASTERN PANHANDLE OF NEBRASKA...

CITY           SKY/WX    TMP DP  RH WIND       PRES   REMARKS
PINE RIDGE     SUNNY     18   7  62 VRB5      30.11R WCI  11
CHADRON        PTSUNNY   18   9  68 CALM      30.12R
ALLIANCE       SUNNY     14   7  73 VRB3      30.06R
SIDNEY         CLOUDY    15   9  76 S9        30.05R HAZE    WCI   3
WHITECLAY        N/A     19   6  59 N3          N/A
CRESCENT LAKE    N/A     16   9  73 S9          N/A  WCI   5
LISCO            N/A     20   8  61 SE5         N/A  WCI  13
BIG SPRINGS      N/A     19  13  79 S12         N/A  WCI   7
LEWELLEN         N/A     15   9  78 S8          N/A  WCI   4
$$

...OBSERVATIONS IN NORTH CENTRAL NEBRASKA...

CITY           SKY/WX    TMP DP  RH WIND       PRES   REMARKS
VALENTINE      SUNNY     20   8  60 SW20      30.16S WCI   4
THEDFORD       LGT SNOW  18  10  71 S14G23    30.18S WCI   4
AINSWORTH      SUNNY     19   9  67 S22       30.18S WCI   2
O`NEILL        SUNNY     19   9  67 S15G21    30.27F WCI   4
ORD            CLOUDY    16   7  67 S15       30.29F WCI   1
BROKEN BOW     CLOUDY    16   8  71 S15G25    30.25R WCI   1
BROWNLEE         N/A     16   9  74 S17         N/A  WCI   0
SPRINGVIEW       N/A     19   9  65 SW17G25     N/A  WCI   4
BREWSTER         N/A     22  12  64 S16         N/A  WCI   8
ROSE             N/A     22  17  79 S10         N/A  WCI  11
NEWPORT          N/A     26  16  66 S18         N/A  WCI  12
SARGENT          N/A     16  10  77 MISG        N/A
COMSTOCK         N/A     22  14  71 S12         N/A  WCI  11
CHAMBERS         N/A     19   6  55 S14         N/A  WCI   6
EWING            N/A     18  11  74 S14         N/A  WCI   4
$$

...OBSERVATIONS IN SOUTHWEST NEBRASKA AND FAR NORTHEAST COLORADO...

CITY           SKY/WX    TMP DP  RH WIND       PRES   REMARKS
WRAY           FLURRIES  17   9  71 SE12      30.12R WCI   4
IMPERIAL         N/A     15   7  70 S13       30.15R WCI   1
OGALLALA       PTSUNNY   17  11  78 S12       30.14S WCI   4
NORTH PLATTE   CLOUDY    18   9  68 S14       30.21R WCI   4
MCCOOK         PTSUNNY   20   9  62 S10       30.24R WCI   9
LEXINGTON      MOSUNNY   19  11  69 S14G21    30.27S WCI   6
PAXTON           N/A     17  12  80 S8          N/A  WCI   7
BRADY            N/A     16   9  73 CALM        N/A
GOTHENBURG       N/A     14   7  73 S8          N/A  WCI   3
CALLAWAY         N/A     15  10  80 S14         N/A  WCI   0
$$

...NORTH PLATTE AREA...

CITY           SKY/WX    TMP DP  RH WIND       PRES   REMARKS
AIRPORT        CLOUDY    18   9  68 S14       30.21R WCI   4
DOWNTOWN         N/A     16   9  72 S8          N/A  WCI   5
$$

...SOME WEATHER OBSERVATIONS FROM AROUND THE REGION...

CITY           SKY/WX    TMP DP  RH WIND       PRES   REMARKS
DENVER         PTSUNNY    9   5  84 W7        29.96R FOG     WCI  -2
LARAMIE        SUNNY      6   1  80 W6        29.84R WCI  -4
CHEYENNE       SUNNY     15   6  67 N10       29.92R WCI   2
SCOTTSBLUFF    SUNNY     16   7  67 W7        30.07R WCI   6
RAPID CITY     SUNNY     18   4  54 N23       30.10R WCI   0
PIERRE         SUNNY     21   8  57 SW15      30.15F WCI   8
WINNER         FAIR      21   6  52 SW23G31   30.19S WCI   5
SIOUX FALLS    MOSUNNY   14   7  73 S17       30.36F WCI  -3
OMAHA          MOSUNNY   18   8  65 S10       30.49F WCI   6
GRAND ISLAND   CLOUDY    15  10  80 S14       30.36S WCI   0
KANSAS CITY    LGT SNOW  19  12  74 SE8       30.50F WCI   9
WICHITA        SNOW      18  14  84 SE8       30.41F VSB 1/2 WCI   8
HAYS           CLOUDY    16   3  57 S12       30.33S WCI   3
LIBERAL        CLOUDY    16  10  79 SE14      30.21S WCI   1
GOODLAND       LGT SNOW  13   9  84 S12       30.12S FOG     WCI  -1
$$



USA.gov is the U.S. government's official web portal to all federal, state and local government web resources and services.